Home   Weather   Fukushima   Past weeks

Flag for Japan Past Weather in Fukushima, Japan — Yesterday and Last 2 Weeks

Now
35 °F

Freezing rain. Cloudy.


Feels Like: 30 °F
Forecast: 33 / 42 °F
Wind: 7 mph from Northwest

Location: Wakamatsu

Current Time: Dec 10, 2016 at 8:28:43 am

Latest Report: Dec 10, 2016 at 7:00 am


Visibility: 13 mi

Pressure: 30.02 "Hg

Humidity: 86%

Dew Point: 32 °F

Location of FukushimaLocation

Past Weather in Fukushima — Graph

°F

Fukushima Temperature Yesterday

Maximum temperature yesterday: 45 °F (at 3:00 pm)
Minimum temperature yesterday: 28 °F (at 12:00 am)
Average temperature yesterday: 37 °F

High & Low Weather Summary for the Past Weeks

 TemperatureHumidityPressure
High56 °F (Dec 5, 2:00 pm)100% (Nov 27, 9:00 pm)30.55 "Hg (Nov 27, 9:00 pm)
Low27 °F (Nov 25, 7:00 am)47% (Nov 30, 3:00 pm)29.75 "Hg (Dec 6, 5:00 am)
Average41 °F83%30.14 "Hg
* Reported Nov 25 7:00 am — Dec 10 7:00 am, Fukushima, Weather by CustomWeather, © 2016

Note: Actual official high and low records may vary slightly from our data, if they occured in-between our weather recording intervals... More about our weather records

Advertising

Fukushima Weather History for the Previous 24 Hours

Scroll right to see more
 ConditionsComfort  
Time TempWeatherWind HumidityBarometerVisibility
7:00 am
Sat, Dec 10
35 °FFreezing rain. Cloudy.7 mph86%30.02 "Hg12 mi
6:00 am36 °FFreezing rain. Overcast.7 mph91%29.98 "Hg12 mi
4:00 am38 °FFreezing rain. Overcast.10 mph88%29.93 "Hg12 mi
3:00 am39 °FLight rain. Overcast.3 mph89%29.91 "Hg12 mi
2:00 am39 °FLight rain. Overcast.5 mph91%29.90 "Hg6 mi
1:00 am39 °FLight rain. Overcast.1 mph94%29.87 "Hg12 mi
12:00 am40 °FLight rain. Overcast.7 mph90%29.87 "Hg12 mi
11:00 pm
Fri, Dec 9
40 °FLight rain. Overcast.2 mph97%29.86 "Hg9 mi
10:00 pm41 °FLight rain. Overcast.6 mph93%29.86 "Hg6 mi
9:00 pm40 °FLight rain. Overcast.5 mph92%29.83 "Hg12 mi
8:00 pm42 °FLight rain. Overcast.3 mph92%29.82 "Hg6 mi
7:00 pm41 °FLight rain. Overcast.3 mph97%29.82 "Hg6 mi
6:00 pm42 °FLight rain. Overcast.3 mph93%29.79 "Hg11 mi
5:00 pm43 °FLight rain. Overcast.2 mph88%29.80 "Hg12 mi
4:00 pm45 °FLight rain. Cloudy.5 mph78%29.80 "Hg12 mi
3:00 pm45 °FCool.2 mph73%29.78 "Hg12 mi
2:00 pm45 °FCool.3 mph75%29.79 "Hg12 mi
1:00 pm44 °FQuite cool.5 mph75%29.80 "Hg12 mi
12:00 pm38 °FChilly.2 mph97%29.86 "Hg9 mi
11:00 am34 °FFog.2 mph100%29.88 "Hg6 mi
10:00 am32 °FChilly.3 mph100%29.93 "Hg1 mi
9:00 am32 °FChilly.2 mph100%29.94 "Hg1 mi
8:00 am30 °FDuststorm.2 mph100%29.96 "Hg0 mi
Weather by CustomWeather, © 2016

See weather overviewHow to use our weather pages